�������l�o���
Date,Time,MP-1(��Sv/h),MP-2(��Sv/h),MP-3(��Sv/h),MP-4(��Sv/h),MP-5(��Sv/h),MP-6(��Sv/h),MP-7(��Sv/h),MP-8(��Sv/h),����,����(m/s),���J
2020/08/14,00:00,0.695,0.999,0.628,1.197,0.865,0.398,0.688,0.645,�k��,4.1,��
2020/08/14,00:10,0.697,0.997,0.628,1.196,0.866,0.397,0.688,0.645,�k��,4.3,��
2020/08/14,00:20,0.696,1.001,0.629,1.196,0.863,0.398,0.687,0.643,�k��,4.2,��
2020/08/14,00:30,0.696,0.999,0.627,1.199,0.864,0.396,0.685,0.644,���k��,3.9,��
2020/08/14,00:40,0.695,0.999,0.629,1.197,0.862,0.397,0.688,0.645,�k��,5.4,��
2020/08/14,00:50,0.697,0.998,0.628,1.198,0.863,0.396,0.687,0.642,�k��,5.0,��
2020/08/14,01:00,0.697,0.999,0.627,1.200,0.863,0.398,0.687,0.644,�k��,4.8,��
2020/08/14,01:10,0.694,1.000,0.628,1.199,0.864,0.396,0.687,0.643,�k�k��,4.1,��
2020/08/14,01:20,0.697,0.997,0.628,1.197,0.863,0.396,0.687,0.644,�k��,4.1,��
2020/08/14,01:30,0.697,0.999,0.629,1.198,0.862,0.397,0.687,0.645,�k��,4.4,��
2020/08/14,01:40,0.696,0.998,0.628,1.198,0.863,0.397,0.685,0.643,�k�k��,4.6,��
2020/08/14,01:50,0.697,0.997,0.629,1.197,0.862,0.396,0.687,0.645,�k��,4.6,��
2020/08/14,02:00,0.696,0.999,0.629,1.199,0.861,0.396,0.686,0.643,�k��,4.5,��
2020/08/14,02:10,0.697,0.998,0.629,1.197,0.863,0.396,0.687,0.646,�k��,2.6,��
2020/08/14,02:20,0.697,1.000,0.630,1.198,0.863,0.396,0.687,0.644,�k�k��,3.7,��
2020/08/14,02:30,0.699,0.999,0.629,1.198,0.865,0.396,0.686,0.645,�k�k��,5.4,��
2020/08/14,02:40,0.696,0.999,0.628,1.198,0.864,0.396,0.686,0.643,�k,6.4,��
2020/08/14,02:50,0.696,0.997,0.629,1.198,0.865,0.397,0.687,0.644,�k,6.2,��
2020/08/14,03:00,0.696,0.999,0.628,1.202,0.865,0.397,0.686,0.644,�k,6.5,��
2020/08/14,03:10,0.695,0.999,0.629,1.199,0.865,0.396,0.686,0.643,�k�k��,5.5,��
2020/08/14,03:20,0.695,0.999,0.628,1.200,0.865,0.397,0.687,0.645,�k�k��,4.8,��
2020/08/14,03:30,0.696,0.997,0.629,1.200,0.863,0.397,0.687,0.643,�k�k��,5.1,��
2020/08/14,03:40,0.694,0.997,0.630,1.198,0.863,0.395,0.687,0.645,�k�k��,5.1,��
2020/08/14,03:50,0.693,0.998,0.627,1.199,0.863,0.395,0.688,0.644,�k�k��,5.2,��
2020/08/14,04:00,0.696,0.999,0.628,1.198,0.863,0.395,0.687,0.643,�k�k��,5.4,��
2020/08/14,04:10,0.695,0.997,0.627,1.199,0.863,0.397,0.687,0.644,�k�k��,5.4,��
2020/08/14,04:20,0.695,0.997,0.630,1.199,0.862,0.396,0.685,0.644,�k�k��,5.5,��
2020/08/14,04:30,0.694,0.999,0.629,1.199,0.865,0.396,0.686,0.645,�k�k��,6.0,��
2020/08/14,04:40,0.694,0.997,0.628,1.198,0.863,0.396,0.687,0.645,�k�k��,5.8,��
2020/08/14,04:50,0.693,0.997,0.631,1.198,0.861,0.398,0.686,0.645,�k�k��,5.1,��
2020/08/14,05:00,0.694,0.997,0.628,1.199,0.862,0.395,0.687,0.644,�k�k��,4.9,��
2020/08/14,05:10,0.696,0.998,0.627,1.198,0.863,0.396,0.687,0.643,�k�k��,4.5,��
2020/08/14,05:20,0.695,0.997,0.627,1.197,0.862,0.396,0.687,0.643,�k�k��,4.9,��
2020/08/14,05:30,0.694,0.997,0.626,1.199,0.862,0.398,0.686,0.643,�k�k��,4.7,��
2020/08/14,05:40,0.694,0.997,0.628,1.199,0.863,0.396,0.686,0.643,�k�k��,4.8,��
2020/08/14,05:50,0.694,0.999,0.628,1.200,0.863,0.397,0.687,0.642,�k�k��,4.4,��
2020/08/14,06:00,0.695,0.996,0.628,1.201,0.865,0.397,0.686,0.643,�k�k��,5.1,��
2020/08/14,06:10,0.693,0.997,0.627,1.198,0.861,0.398,0.688,0.644,�k�k��,4.3,��
2020/08/14,06:20,0.695,1.000,0.627,1.201,0.860,0.396,0.686,0.644,�k�k��,3.8,��
2020/08/14,06:30,0.695,0.998,0.628,1.201,0.861,0.396,0.686,0.643,�k�k��,4.0,��
2020/08/14,06:40,0.697,0.997,0.628,1.201,0.861,0.397,0.686,0.643,�k�k��,3.2,��
2020/08/14,06:50,0.697,0.995,0.629,1.202,0.863,0.398,0.687,0.643,�k,2.8,��
2020/08/14,07:00,0.698,0.997,0.628,1.200,0.865,0.397,0.686,0.643,�k�k��,1.7,��
2020/08/14,07:10,0.696,0.998,0.628,1.200,0.863,0.396,0.688,0.645,�k�k��,0.6,��
2020/08/14,07:20,0.696,0.996,0.628,1.198,0.863,0.397,0.688,0.644,�k,1.1,��
2020/08/14,07:30,0.695,0.996,0.627,1.202,0.862,0.397,0.686,0.644,�k��,1.7,��
2020/08/14,07:40,0.696,0.998,0.628,1.201,0.864,0.397,0.688,0.643,�k�k��,1.4,��
2020/08/14,07:50,0.698,0.999,0.626,1.199,0.863,0.397,0.687,0.644,�k��,1.2,��
2020/08/14,08:00,0.696,0.998,0.627,1.200,0.862,0.397,0.687,0.644,���k��,1.5,��
2020/08/14,08:10,0.695,0.998,0.629,1.200,0.865,0.397,0.687,0.643,�k��,2.5,��
2020/08/14,08:20,0.697,0.997,0.626,1.201,0.863,0.397,0.687,0.645,�k�k��,3.0,��
2020/08/14,08:30,0.695,0.999,0.627,1.200,0.865,0.396,0.688,0.644,�k�k��,2.8,��
2020/08/14,08:40,0.696,0.996,0.627,1.202,0.864,0.397,0.689,0.644,�k�k��,2.0,��
2020/08/14,08:50,0.697,0.996,0.627,1.201,0.867,0.397,0.689,0.643,�k�k��,2.5,��
2020/08/14,09:00,0.696,0.997,0.627,1.201,0.864,0.397,0.688,0.644,�k�k��,2.6,��
2020/08/14,09:10,0.695,1.000,0.626,1.201,0.865,0.396,0.689,0.643,�k�k��,3.1,��
2020/08/14,09:20,0.695,0.999,0.627,1.201,0.868,0.396,0.690,0.644,�k��,2.0,��
2020/08/14,09:30,0.695,0.999,0.627,1.199,0.868,0.396,0.689,0.643,���k��,2.2,��
2020/08/14,09:40,0.695,0.997,0.627,1.203,0.869,0.397,0.688,0.643,�k��,2.6,��
2020/08/14,09:50,0.697,1.000,0.628,1.202,0.870,0.397,0.689,0.643,�k��,2.6,��
2020/08/14,10:00,0.694,1.001,0.628,1.202,0.869,0.397,0.689,0.644,�k��,2.8,��
2020/08/14,10:10,0.696,0.999,0.627,1.203,0.870,0.397,0.688,0.644,�k��,3.4,��
2020/08/14,10:20,0.698,0.999,0.626,1.202,0.869,0.396,0.688,0.644,�k�k��,3.9,��
2020/08/14,10:30,0.695,1.001,0.629,1.205,0.871,0.396,0.688,0.643,�k�k��,3.3,��
2020/08/14,10:40,0.695,0.999,0.630,1.205,0.873,0.397,0.687,0.643,�k��,3.7,��
2020/08/14,10:50,0.695,0.999,0.628,1.203,0.871,0.396,0.689,0.644,���k��,3.6,��
2020/08/14,11:00,0.698,0.999,0.629,1.203,0.872,0.396,0.688,0.642,�k��,3.5,��
2020/08/14,11:10,0.697,1.001,0.629,1.205,0.873,0.396,0.686,0.644,���k��,3.1,��
2020/08/14,11:20,0.696,1.004,0.628,1.204,0.873,0.397,0.687,0.643,��,3.6,��
2020/08/14,11:30,0.699,1.003,0.628,1.200,0.872,0.396,0.688,0.644,���쓌,3.8,��
2020/08/14,11:40,0.696,1.002,0.629,1.201,0.871,0.396,0.689,0.644,��,3.3,��
2020/08/14,11:50,0.696,1.003,0.629,1.202,0.872,0.396,0.688,0.642,��,3.1,��
2020/08/14,12:00,0.695,1.001,0.629,1.202,0.873,0.397,0.686,0.645,���쓌,2.5,��
2020/08/14,12:10,0.696,1.004,0.627,1.203,0.875,0.397,0.687,0.644,�쓌,2.5,�L
2020/08/14,12:20,0.695,1.001,0.629,1.203,0.874,0.396,0.688,0.645,���쓌,2.3,�L
2020/08/14,12:30,0.695,1.002,0.629,1.201,0.874,0.396,0.687,0.643,�쓌,3.0,�L
2020/08/14,12:40,0.696,1.000,0.628,1.202,0.873,0.395,0.687,0.644,�쓌,2.6,��
2020/08/14,12:50,0.696,1.000,0.628,1.204,0.871,0.396,0.687,0.644,�쓌,2.6,��
2020/08/14,13:00,0.695,1.001,0.627,1.202,0.874,0.396,0.687,0.642,���쓌,2.0,��
2020/08/14,13:10,0.697,1.001,0.629,1.200,0.873,0.397,0.688,0.644,�쓌,2.3,��
2020/08/14,13:20,0.696,1.002,0.627,1.202,0.874,0.396,0.689,0.645,�쓌,2.8,��
2020/08/14,13:30,0.697,1.001,0.627,1.204,0.874,0.395,0.688,0.643,�쓌,2.6,��
2020/08/14,13:40,0.700,1.003,0.628,1.203,0.876,0.397,0.690,0.645,���쓌,2.0,��
2020/08/14,13:50,0.697,1.002,0.628,1.205,0.874,0.397,0.689,0.645,�쓌,2.6,��
2020/08/14,14:00,0.699,1.002,0.628,1.205,0.873,0.397,0.688,0.644,�쓌,3.0,��
2020/08/14,14:10,0.698,1.001,0.630,1.206,0.876,0.396,0.686,0.644,�쓌,2.5,��
2020/08/14,14:20,0.697,1.001,0.629,1.205,0.875,0.397,0.688,0.646,���쓌,2.6,��
2020/08/14,14:30,0.698,1.003,0.629,1.205,0.875,0.397,0.688,0.644,���쓌,2.9,��
2020/08/14,14:40,0.697,1.003,0.629,1.203,0.875,0.398,0.688,0.643,���쓌,3.2,��
2020/08/14,14:50,0.698,1.003,0.628,1.204,0.875,0.397,0.687,0.644,�쓌,3.2,��
2020/08/14,15:00,0.698,1.002,0.629,1.202,0.875,0.397,0.688,0.644,�쓌,2.5,��
2020/08/14,15:10,0.700,1.003,0.628,1.207,0.874,0.397,0.687,0.645,��쓌,1.9,��
2020/08/14,15:20,0.698,1.006,0.629,1.206,0.876,0.396,0.689,0.645,��쓌,3.3,��
2020/08/14,15:30,0.697,1.005,0.628,1.204,0.875,0.398,0.689,0.645,��쓌,2.3,��
2020/08/14,15:40,0.698,1.003,0.626,1.204,0.875,0.394,0.688,0.644,�쓌,2.6,��
2020/08/14,15:50,0.699,1.003,0.630,1.205,0.875,0.397,0.688,0.645,�쓌,3.8,��
2020/08/14,16:00,0.698,1.003,0.628,1.205,0.877,0.397,0.687,0.644,��쓌,3.3,��
2020/08/14,16:10,0.698,1.004,0.629,1.205,0.876,0.398,0.690,0.645,��쓌,3.0,��
2020/08/14,16:20,0.697,1.004,0.628,1.206,0.877,0.397,0.687,0.644,�쓌,3.7,��
2020/08/14,16:30,0.697,1.005,0.629,1.204,0.876,0.396,0.690,0.644,��쓌,3.9,��
2020/08/14,16:40,0.698,1.004,0.629,1.206,0.878,0.397,0.688,0.643,��쓌,4.8,��
2020/08/14,16:50,0.696,1.006,0.628,1.208,0.876,0.397,0.688,0.645,�쓌,4.0,��
2020/08/14,17:00,0.698,1.006,0.632,1.205,0.876,0.397,0.688,0.644,�쓌,3.9,��
2020/08/14,17:10,0.700,1.006,0.629,1.208,0.876,0.397,0.688,0.645,��쓌,3.8,��
2020/08/14,17:20,0.698,1.006,0.630,1.206,0.877,0.396,0.690,0.643,�쓌,4.9,��
2020/08/14,17:30,0.697,1.002,0.628,1.206,0.876,0.397,0.688,0.646,�쓌,5.0,��
2020/08/14,17:40,0.698,1.001,0.629,1.205,0.875,0.397,0.689,0.642,��쓌,5.9,��
2020/08/14,17:50,0.698,1.006,0.630,1.206,0.879,0.397,0.690,0.645,��쓌,4.5,��
2020/08/14,18:00,0.698,1.005,0.627,1.203,0.876,0.397,0.691,0.644,��쓌,4.8,��
2020/08/14,18:10,0.699,1.006,0.631,1.205,0.876,0.398,0.687,0.645,��쓌,4.7,��
2020/08/14,18:20,0.699,1.005,0.630,1.205,0.878,0.398,0.688,0.644,��쓌,5.0,��
2020/08/14,18:30,0.697,1.007,0.629,1.207,0.876,0.399,0.689,0.643,��,4.3,��
2020/08/14,18:40,0.697,1.004,0.631,1.205,0.877,0.399,0.688,0.645,��쓌,5.5,��
2020/08/14,18:50,0.697,1.006,0.631,1.206,0.878,0.398,0.690,0.643,��쓌,6.1,��
2020/08/14,19:00,0.698,1.007,0.629,1.206,0.879,0.398,0.689,0.644,��쓌,5.1,��
2020/08/14,19:10,0.697,1.004,0.631,1.208,0.878,0.399,0.688,0.643,��,3.6,��
2020/08/14,19:20,0.697,1.006,0.630,1.206,0.880,0.399,0.688,0.645,��쓌,3.6,��
2020/08/14,19:30,0.697,1.006,0.630,1.206,0.876,0.398,0.688,0.644,��,4.2,��
2020/08/14,19:40,0.696,1.007,0.629,1.208,0.878,0.398,0.689,0.645,��,4.7,��
2020/08/14,19:50,0.695,1.007,0.631,1.206,0.878,0.398,0.690,0.644,��,4.9,��
2020/08/14,20:00,0.695,1.008,0.629,1.207,0.878,0.397,0.689,0.646,��,3.0,��
2020/08/14,20:10,0.697,1.007,0.630,1.208,0.877,0.398,0.686,0.645,��,3.0,��
2020/08/14,20:20,0.696,1.007,0.630,1.207,0.878,0.398,0.689,0.643,��,4.0,��
2020/08/14,20:30,0.699,1.006,0.629,1.206,0.879,0.398,0.688,0.646,��,3.9,��
2020/08/14,20:40,0.697,1.005,0.630,1.206,0.878,0.398,0.688,0.645,��,3.9,��
2020/08/14,20:50,0.697,1.006,0.630,1.210,0.878,0.399,0.688,0.645,��쐼,3.6,��
2020/08/14,21:00,0.696,1.008,0.631,1.205,0.877,0.400,0.690,0.644,��,3.4,��
2020/08/14,21:10,0.697,1.007,0.630,1.208,0.878,0.399,0.689,0.643,��,3.0,��
2020/08/14,21:20,0.697,1.005,0.630,1.208,0.879,0.399,0.688,0.644,��,3.4,��
2020/08/14,21:30,0.698,1.007,0.631,1.206,0.877,0.399,0.689,0.644,��쐼,3.2,��
2020/08/14,21:40,0.698,1.007,0.631,1.208,0.879,0.400,0.689,0.644,��쐼,3.7,��
2020/08/14,21:50,0.697,1.005,0.630,1.208,0.879,0.399,0.688,0.645,��쐼,3.6,��
2020/08/14,22:00,0.697,1.008,0.629,1.209,0.879,0.399,0.689,0.646,��쐼,3.7,��
2020/08/14,22:10,0.698,1.008,0.630,1.208,0.880,0.399,0.689,0.646,��쐼,4.4,��
2020/08/14,22:20,0.699,1.005,0.629,1.210,0.877,0.400,0.690,0.647,��쐼,4.8,��
2020/08/14,22:30,0.697,1.006,0.630,1.211,0.880,0.400,0.689,0.647,��,4.8,��
2020/08/14,22:40,0.700,1.007,0.632,1.208,0.878,0.399,0.690,0.646,��,4.2,��
2020/08/14,22:50,0.698,1.006,0.631,1.208,0.878,0.398,0.690,0.645,��,1.9,��
2020/08/14,23:00,0.697,1.005,0.631,1.209,0.879,0.399,0.689,0.647,��쐼,1.5,��
2020/08/14,23:10,0.697,1.008,0.633,1.208,0.879,0.398,0.690,0.646,��쐼,1.7,��
2020/08/14,23:20,0.697,1.008,0.632,1.210,0.879,0.399,0.689,0.646,��,1.5,��
2020/08/14,23:30,0.699,1.007,0.631,1.210,0.879,0.399,0.691,0.646,��,0.9,��
2020/08/14,23:40,0.698,1.005,0.632,1.209,0.876,0.400,0.689,0.646,-,CALM,��
2020/08/14,23:50,0.696,1.008,0.631,1.209,0.876,0.401,0.690,0.646,��,0.9,��
